This demonstration page uses our WeatherBlox Daily Observations layout. Learn more.

Left ArrowRight Arrow

40.92945, -100.16068

Hourly Observations for October 30, 2021

Temp ( °F °C ) Dew Point ( °F °C ) Humidity (%) Winds ( mph kmh ) Pressure ( in mb ) Visibility ( mi km ) Precip ( " mm )
12:15 am 00:15 Clear 37 2.6 30 -0.9 78 78 ESE 3 6 29.99 1016 10 16 N/A
12:35 am 00:35 Clear 37 2.7 30 -1.2 76 76 E 3 6 29.99 1016 10 16 N/A
12:55 am 00:55 Clear 37 2.5 30 -1.2 77 77 ESE 3 6 29.98 1015 10 16 N/A
1:15 am 01:15 Clear 36 2.3 29 -1.5 76 76 N N/A 29.99 1016 10 16 N/A
1:35 am 01:35 Clear 35 1.5 29 -1.4 81 81 ESE 3 6 29.99 1016 10 16 N/A
1:55 am 01:55 Clear 36 2.3 29 -1.4 77 77 SE 5 7 29.98 1015 10 16 N/A
2:15 am 02:15 Clear 35 1.4 29 -1.5 81 81 N N/A 29.99 1016 10 16 N/A
2:35 am 02:35 Clear 33 0.6 29 -1.7 85 85 N N/A 29.99 1016 10 16 N/A
2:55 am 02:55 Clear 33 0.5 29 -1.6 86 86 ESE 3 6 29.99 1016 10 16 N/A
3:15 am 03:15 Clear 35 1.6 30 -1.2 82 82 SE 3 6 29.96 1015 10 16 N/A
3:35 am 03:35 Clear 38 3.1 30 -1.2 74 74 SE 6 9 29.95 1014 10 16 N/A
3:55 am 03:55 Clear 37 3 30 -1.1 75 75 SSE 3 6 29.95 1014 10 16 N/A
4:15 am 04:15 Clear 34 1.2 28 -2.2 78 78 N N/A 29.95 1014 10 16 N/A
4:35 am 04:35 Clear 33 0.6 29 -1.6 85 85 N N/A 29.95 1014 10 16 N/A
4:55 am 04:55 Clear 35 1.6 29 -1.5 80 80 N N/A 29.93 1014 10 16 N/A
5:15 am 05:15 Clear 36 2 30 -1.3 79 79 SSE 7 11 29.92 1013 10 16 N/A
5:35 am 05:35 Clear 37 2.5 29 -1.4 76 76 N N/A 29.92 1013 10 16 N/A
5:55 am 05:55 Clear 33 0.4 29 -1.9 85 85 SSE 3 6 29.93 1014 10 16 N/A
6:15 am 06:15 Clear 31 -0.4 28 -2.1 88 88 S 8 13 29.93 1014 10 16 N/A
6:35 am 06:35 Clear 35 1.7 29 -1.7 78 78 N 6 9 29.91 1013 10 16 N/A
6:55 am 06:55 Clear 33 0.6 29 -1.4 87 87 NW 6 9 29.92 1013 10 16 N/A
7:15 am 07:15 Clear 32 undefined 28 -2 87 87 W 7 11 29.93 1013 10 16 N/A
7:35 am 07:35 Clear 32 undefined 28 -2 87 87 WSW 6 9 29.92 1013 10 16 N/A
7:55 am 07:55 Clear 35 1.8 31 -0.8 83 83 W 6 9 29.90 1012 10 16 N/A
8:15 am 08:15 Sunny 35 1.9 31 -0.5 84 84 W 6 9 29.90 1012 10 16 N/A
8:35 am 08:35 Sunny 37 2.6 32 -0.2 82 82 W 6 9 29.90 1013 10 16 N/A
8:55 am 08:55 Sunny 38 3.3 33 0.8 84 84 W 6 9 29.89 1012 10 16 N/A
9:15 am 09:15 Sunny 42 5.3 36 2.1 80 80 W 5 7 29.88 1012 10 16 N/A
9:35 am 09:35 Sunny 43 6.2 36 2.1 75 75 WNW 5 7 29.88 1012 10 16 N/A
9:55 am 09:55 Sunny 45 7.2 35 1.9 69 69 WNW 8 13 29.87 1011 10 16 N/A
10:15 am 10:15 Sunny 49 9.3 37 2.5 63 63 WNW 12 19 29.85 1011 10 16 N/A
10:35 am 10:35 Sunny 51 10.7 37 3 59 59 WNW 12 19 29.84 1011 10 16 N/A
10:55 am 10:55 Sunny 56 13.3 39 4 54 54 NW 14 22 29.82 1010 10 16 N/A
11:15 am 11:15 Sunny 61 16 39 4.1 45 45 NNW 20 31 29.80 1009 10 16 N/A
11:35 am 11:35 Sunny 62 16.5 40 4.4 45 45 NNW 22 35 29.80 1009 10 16 N/A
11:55 am 11:55 Sunny 64 17.5 41 5 44 44 N 22 35 29.80 1009 10 16 N/A
12:15 pm 12:15 Sunny 64 18 42 5.3 43 43 NNW 21 33 29.80 1009 10 16 N/A
12:35 pm 12:35 Sunny 66 18.7 42 5.6 42 42 N 22 35 29.79 1009 10 16 N/A
12:55 pm 12:55 Sunny 66 18.9 42 5.5 42 42 N 24 39 29.80 1009 10 16 N/A
1:15 pm 13:15 Sunny 66 19.1 42 5.5 41 41 N 24 39 29.80 1009 10 16 N/A
1:35 pm 13:35 Sunny 67 19.5 42 5.7 41 41 NNW 23 37 29.80 1009 10 16 N/A
1:55 pm 13:55 Sunny 67 19.5 42 5.5 40 40 N 22 35 29.79 1009 10 16 N/A
2:15 pm 14:15 Sunny 68 19.8 42 5.5 39 39 N 23 37 29.78 1009 10 16 N/A
2:35 pm 14:35 Sunny 68 19.9 42 5.4 39 39 NNE 24 39 29.79 1009 10 16 N/A
2:55 pm 14:55 Sunny 68 20 42 5.7 39 39 N 26 43 29.80 1009 10 16 N/A
3:15 pm 15:15 Sunny 67 19.4 42 5.7 41 41 N 25 41 29.82 1010 10 16 N/A
3:35 pm 15:35 Sunny 67 19.3 42 5.6 41 41 N 25 41 29.82 1010 10 16 N/A
3:55 pm 15:55 Sunny 66 18.7 41 5.2 41 41 N 25 41 29.83 1010 10 16 N/A
4:15 pm 16:15 Sunny 65 18.5 42 5.3 42 42 N 26 43 29.85 1011 10 16 N/A
4:35 pm 16:35 Sunny 64 17.8 41 5.1 43 43 N 26 43 29.86 1011 10 16 N/A
4:55 pm 16:55 Sunny 63 17.2 41 5.1 45 45 N 22 35 29.89 1012 10 16 N/A
5:15 pm 17:15 Sunny 62 16.6 41 5.2 47 47 N 23 37 29.90 1013 10 16 N/A
5:35 pm 17:35 Sunny 61 16 42 5.4 50 50 N 16 26 29.92 1013 10 16 N/A
5:55 pm 17:55 Sunny 60 15.3 41 5.2 51 51 N 20 31 29.93 1014 10 16 N/A
6:15 pm 18:15 Sunny 58 14.3 40 4.7 53 53 N 17 28 29.95 1014 10 16 N/A
6:35 pm 18:35 Sunny 56 13.2 40 4.7 57 57 N 17 28 29.97 1015 10 16 N/A
6:55 pm 18:55 Clear 55 12.5 41 4.9 60 60 N 22 35 30.00 1016 10 16 N/A
7:15 pm 19:15 Clear 53 11.6 40 4.6 62 62 N 21 33 30.03 1017 10 16 N/A
7:35 pm 19:35 Clear 52 11 39 3.8 61 61 N 14 22 30.04 1017 10 16 N/A
7:55 pm 19:55 Clear 50 10.1 39 3.7 65 65 N 14 22 30.06 1018 10 16 N/A
8:15 pm 20:15 Clear 48 9 38 3.6 69 69 NNW 13 20 30.07 1018 10 16 N/A
8:35 pm 20:35 Clear 47 8.1 38 3.5 73 73 N 12 19 30.09 1019 10 16 N/A
8:55 pm 20:55 Clear 46 7.5 38 3.1 74 74 N 12 19 30.09 1019 10 16 N/A
9:15 pm 21:15 Clear 46 7.7 37 2.8 71 71 N 13 20 30.09 1019 10 16 N/A
9:35 pm 21:35 Clear 46 7.5 37 2.5 71 71 N 13 20 30.11 1020 10 16 N/A
9:55 pm 21:55 Clear 45 7.2 36 2.3 71 71 N 13 20 30.14 1021 10 16 N/A
10:15 pm 22:15 Clear 43 6.2 36 2.2 76 76 NNW 10 17 30.16 1021 10 16 N/A
10:35 pm 22:35 Clear 43 5.9 36 2.2 77 77 NNW 13 20 30.17 1022 10 16 N/A
10:55 pm 22:55 Clear 42 5.6 36 2 78 78 NNW 9 15 30.18 1022 10 16 N/A
11:15 pm 23:15 Clear 42 5.6 35 1.8 77 77 N 12 19 30.19 1022 10 16 N/A
11:35 pm 23:35 Clear 42 5.3 35 1.7 78 78 NNW 12 19 30.20 1023 10 16 N/A
11:55 pm 23:55 Clear 41 5 35 1.5 78 78 N 10 17 30.21 1023 10 16 N/A

Powered by AerisWeather